Woody Richerson — WDF9621 — position and weather

sailwx.info

Track history (hours):
 
Tides and Currents Weather Stations Pressure Air Temp Water Temp Dewpoint Dewpoint Depression Visibility Wind Speed Wind Dir Waves Ship Positions

Woody Richerson

Owner: Florida Marine, LLC, Mandeville, LA. More information available from US FCC via Universal Licensing System and Coast Guard Vessel Documentation Center.

Last reported at 2016-May-04 06:05 UTC. Time now 2016-May-04 23:09 UTC.
Position N 29°57' W 090°14'.

Length 27 m.

Type: Other ship. MMSI: 367507070.

Date/timePositionNaut miles runAvg speedWind from/ knotsBaromVisibWave heightAir tempDewpointWater temp
2016-May-04 06:05N 29°57' W 090°14'3 4.6
2016-May-04 05:32N 29°55' W 090°12'3 3.2
2016-May-04 04:33N 29°56' W 090°08'4 4.2
2016-May-04 03:33N 29°56' W 090°04'2 1.7
2016-May-04 02:33N 29°58' W 090°02'1 0.9
2016-May-04 01:33N 29°58' W 090°02'0 0.4
2016-May-04 00:33N 29°58' W 090°01'0 0.0
2016-May-03 23:33N 29°59' W 090°01'2 2.2
2016-May-03 22:33N 29°60' W 089°59'0 0.0
2016-May-03 21:33N 29°60' W 089°59'0 0.0
2016-May-03 20:33N 29°60' W 089°59'0 0.0
2016-May-03 19:33N 29°60' W 089°59'0 0.0
2016-May-03 18:33N 29°60' W 089°59'0 0.0
2016-May-03 17:33N 29°60' W 089°59'0 0.1
2016-May-03 16:33N 29°60' W 089°59'0 0.0
2016-May-03 15:33N 29°60' W 089°59'0 0.0
2016-May-03 14:33N 29°60' W 089°59'0 0.0
2016-May-03 13:33N 29°60' W 089°59'0 0.0
2016-May-03 12:33N 29°60' W 089°59'0 0.0
2016-May-03 11:33N 29°60' W 089°59'0 0.0
2016-May-03 10:33N 29°60' W 089°59'0 0.0
2016-May-03 09:33N 29°60' W 089°59'0 0.0
2016-May-03 08:33N 29°60' W 089°59'0 0.0
2016-May-03 07:33N 29°60' W 089°59'  
Track history (hours):
 
Tides and Currents Weather Stations Pressure Air Temp Water Temp Dewpoint Dewpoint Depression Visibility Wind Speed Wind Dir Waves Ship Positions

Woody Richerson

Owner: Florida Marine, LLC, Mandeville, LA. More information available from US FCC via Universal Licensing System and Coast Guard Vessel Documentation Center.

Last reported at 2016-May-04 06:05 UTC. Time now 2016-May-04 23:09 UTC.
Position N 29°57' W 090°14'.

Length 27 m.

Type: Other ship. MMSI: 367507070.

Date/timePositionNaut miles runAvg speedWind from/ knotsBaromVisibWave heightAir tempDewpointWater temp
2016-May-04 06:05N 29°57' W 090°14'3 4.6
2016-May-04 05:32N 29°55' W 090°12'3 3.2
2016-May-04 04:33N 29°56' W 090°08'4 4.2
2016-May-04 03:33N 29°56' W 090°04'2 1.7
2016-May-04 02:33N 29°58' W 090°02'1 0.9
2016-May-04 01:33N 29°58' W 090°02'0 0.4
2016-May-04 00:33N 29°58' W 090°01'0 0.0
2016-May-03 23:33N 29°59' W 090°01'2 2.2
2016-May-03 22:33N 29°60' W 089°59'0 0.0
2016-May-03 21:33N 29°60' W 089°59'0 0.0
2016-May-03 20:33N 29°60' W 089°59'0 0.0
2016-May-03 19:33N 29°60' W 089°59'0 0.0
2016-May-03 18:33N 29°60' W 089°59'0 0.0
2016-May-03 17:33N 29°60' W 089°59'0 0.1
2016-May-03 16:33N 29°60' W 089°59'0 0.0
2016-May-03 15:33N 29°60' W 089°59'0 0.0
2016-May-03 14:33N 29°60' W 089°59'0 0.0
2016-May-03 13:33N 29°60' W 089°59'0 0.0
2016-May-03 12:33N 29°60' W 089°59'0 0.0
2016-May-03 11:33N 29°60' W 089°59'0 0.0
2016-May-03 10:33N 29°60' W 089°59'0 0.0
2016-May-03 09:33N 29°60' W 089°59'0 0.0
2016-May-03 08:33N 29°60' W 089°59'0 0.0
2016-May-03 07:33N 29°60' W 089°59'  

Dump ship's entire track history